Weather in Verhnyaya Ivolga

Russia / Republic of Buryatia     51°45′09″N   107°12′01″E
temp.,
°C
wind,
m/s
gust,
m/s
humid.,
%
clouds,
%
prec.,
mm/h
press.,
hPa
HPBL,
m
26 october, tue
tue2623:00−1sw22885 0.0 102715
02:00−1sw23885 0.0 102648
05:00−1sw2583100 0.0 1024141
08:00−1ssw358597 0.0 1023123
11:00+3ssw45655 0.0 1022379
14:00+7ssw345098 0.0 1019520
17:00+4sw22675 0.0 102017
20:00+2wsw22735 0.0 102210
27 october, wed
wed2723:00+1sw22720 0.0 102213
02:000sw22750 0.0 102112
05:00−1sw22765 0.0 102116
08:00−1ssw1278100 0.0 102021
11:00+4s255780 0.0 1018362
14:00+8ssw474443 0.0 1015686
17:00+5nw22585 0.0 101611
20:00+2nw22755 0.0 101924
28 october, thu
thu2823:00+1nnw22795 0.0 102128
02:00+1nnw228241 0.0 102224
05:00+1nnw228467 0.0 102224
08:000n2287100 0.0 102327
11:00+5n2369100 0.0 1022387
14:00+6nnw4558100 0.0 1022628
17:00+3n3678100 0.0 1025407
20:00+1nnw2486100 0.0 1028175
29 october, fri
fri2923:00−1nnw239097 0.0 103074
02:00−2nnw228923 0.0 103238
05:00−2n1285100 0.0 103226
08:00−2nne1180100 0.0 103315
11:00+1ene1161100 0.0 1033367
14:00+3e1147100 0.0 1032503
17:00+1e115695 0.0 103210
20:00−1nnw11615 0.0 103410
30 october, sat
sat3023:00−2nw00613 0.0 103510
02:00−3w00630 0.0 103511
05:00−3ssw11685 0.0 103513
08:00−3ssw11706 0.0 103615
11:00+1s234999 0.0 1035366
14:00+4ssw35425 0.0 1032608
17:00+1ssw11565 0.0 103113
20:00−1ssw11660 0.0 103211